Regional Weather Roundup
Issued by NWS

Home | Current Version | Previous Version | Text Only | Print | Product List | Glossary Off
Versions: 1 2 3 4 5 6 7 8 9 10 11 12 13 14 15 16 17 18 19 20 21 22 23 24 25 26 27 28 29 30 31 32 33 34 35 36 37 38 39 40 41 42 43 44 45 46 47 48 49 50

000
ASUS43 KLOT 290008
RWRIL

ILLINOIS REGIONAL WEATHER ROUNDUP
NATIONAL WEATHER SERVICE CHICAGO/ROMEOVILLE IL
700 PM CDT THU APR 28 2016

NOTE: "FAIR" INDICATES FEW OR NO CLOUDS BELOW 12,000 FEET WITH NO
SIGNIFICANT WEATHER AND/OR OBSTRUCTIONS TO VISIBILITY.

* THESE STATIONS ARE NOT UNDER NWS QUALITY CONTROL. THEY ALSO MAY NOT
  REPORT WEATHER SUCH AS PRECIPITATION OR FOG.

ILZ001-002-007-009-015-016-024-290100-
NORTHWEST ILLINOIS

CITY           SKY/WX    TMP DP  RH WIND       PRES   REMARKS
MOLINE         CLOUDY    54  49  83 CALM      29.94R
6HR MIN TEMP:  52; 6HR MAX TEMP:  57; 6HR PCP:  0.01;

STERLING*      CLOUDY    48  48 100 NE3       29.96R
SAVANNA*       CLOUDY    48  46  95 NE7       29.96R FOG
$$

ILZ003-004-008-010-011-017-018-290100-
NORTH CENTRAL ILLINOIS

CITY           SKY/WX    TMP DP  RH WIND       PRES   REMARKS
ROCKFORD       CLOUDY    45  41  86 NE9       29.99S
6HR MIN TEMP:  45; 6HR MAX TEMP:  52; 6HR PCP: TRACE;

FREEPORT*      CLOUDY    44  41  90 NE12      29.99R
ROCHELLE*      LGT RAIN  46  44  90 NE12      29.97R
DE KALB*       CLOUDY    45  41  86 NE10      29.96S FOG
$$

ILZ005-006-012>014-019>023-290100-
NORTHEAST ILLINOIS

CITY           SKY/WX    TMP DP  RH WIND       PRES   REMARKS
CHICAGO-OHARE  CLOUDY    44  39  82 NE7       29.96R
6HR MIN TEMP:  44; 6HR MAX TEMP:  50;

CHICAGO-MIDWAY CLOUDY    48  40  73 NE9       29.96R
6HR MIN TEMP:  48; 6HR MAX TEMP:  51;

AURORA         CLOUDY    48  41  76 NE13      29.96R
6HR MIN TEMP:  48; 6HR MAX TEMP:  54;

LANSING*       CLOUDY    47  42  84 N6        29.95R
JOLIET*        CLOUDY    52  46  78 NE9       29.94S HAZE
WAUKEGAN       CLOUDY    40  39  97 NE8       29.98R
6HR MIN TEMP:  40; 6HR MAX TEMP:  42;

DUPAGE AIRPORT CLOUDY    45  39  79 NE8       29.96R
6HR MIN TEMP:  45; 6HR MAX TEMP:  52;

KANKAKEE*      CLOUDY    55  50  82 N6        29.94R
WHEELING       CLOUDY    42  39  89 NE8       29.98R
6HR MIN TEMP:  42; 6HR MAX TEMP:  47;

MORRIS*        CLOUDY    53  47  82 NE3       29.93R HAZE
ROMEOVILLE*    CLOUDY    49  42  79 NE9       29.95S
NORTHERLY ISL    N/A     44  41  89 N10         N/A
NORTHERLY ISL    N/A     44  41  89 N10         N/A
$$

LMZ740>746-290100-
SOUTHERN LAKE MICHIGAN

STATION/POSITION SKY/WX   TEMP    WIND        PRES    VSBY  WAVE
                          AIR SEA DIR/SP/G                  HT/PER
                          (F)     (DEG/KT/KT) (MB)    (MI)  (FT/S)
SOUTHERN BUOY              40 40   70/ 12/ 14 1015.1R         2/ 4
HARRISON CRIB              43      30/ 14/ 15   N/A
BURNHAM HARBOR             44     330/  6/ 10   N/A
CALUMET HARBOR             44                 1013.3R
BURNS HARBOR               45      40/  7/ 11 1014.2R
MICHIGAN CITY              45      10/  8/  9   N/A
ST. JOSEPH                 52 48  140/  4/  6   N/A           1/ 4
$$

ILZ025>027-034>036-040-047-049-050-058-095>099-290100-
WEST-CENTRAL ILLINOIS

CITY           SKY/WX    TMP DP  RH WIND       PRES   REMARKS
QUINCY         CLOUDY    59  48  67 W8        29.96R
GALESBURG*     CLOUDY    55  48  79 NW3       29.95R
MACOMB*        CLOUDY    58  49  73 W7        29.97R
JACKSONVILLE*  MOCLDY    61  49  65 W9        29.95S
PITTSFIELD*    CLOUDY    61  48  62 W8        29.98R
$$

ILZ028>032-037-038-041>044-048-051>054-059>061-290100-
CENTRAL ILLINOIS

CITY           SKY/WX    TMP DP  RH WIND       PRES   REMARKS
PONTIAC        DRIZZLE   57  54  88 W5        29.94R
BLOOMINGTON    CLEAR     59  47  64 W15       29.95R
DECATUR        PTCLDY    62  48  60 NW15      29.94R
PEORIA         CLOUDY    58  46  64 W7        29.95R
6HR MIN TEMP:  58; 6HR MAX TEMP:  63;

LACON*         CLOUDY    56  46  69 W7        29.94R
LINCOLN*       MOCLDY    61  48  62 W5        29.94R
SPRINGFIELD    CLOUDY    62  48  60 NW8       29.95R
6HR MIN TEMP:  62; 6HR MAX TEMP:  68;

TAYLORVILLE    CLEAR     63  50  63 NW13G18   29.95R
$$

ILZ033-039-045-046-055>057-062-063-290100-
EAST-CENTRAL ILLINOIS

CITY           SKY/WX    TMP DP  RH WIND       PRES   REMARKS
CHAMPAIGN      PTCLDY    62  50  64 W15       29.93R
RANTOUL*       CLOUDY    63  54  73 NW15G21   29.92R
MATTOON        PTCLDY    63  50  62 W7        29.92R
PARIS*         CLEAR     64  54  68 W16       29.92R
$$

ILZ079-100>102-290100-
SOUTHWEST ILLINOIS

CITY           SKY/WX    TMP DP  RH WIND       PRES   REMARKS
BELLEVILLE     CLEAR     71  49  45 W8        29.92R
CAHOKIA*       LGT RAIN  72  47  40 W8        29.93R
SPARTA*        CLEAR     71  54  55 N3        29.94R
$$

ILZ064>066-069>071-074>076-080>082-084>086-088>090-092>094-290100-
SOUTH-CENTRAL ILLINOIS

CITY           SKY/WX    TMP DP  RH WIND       PRES   REMARKS
CARBONDALE     CLEAR     74  49  41 NW5       29.91R
6HR MIN TEMP:  71; 6HR MAX TEMP:  76;

CAIRO*         CLEAR     75  51  43 SW3       29.92R
EFFINGHAM*     PTCLDY    67  54  64 W6        29.94S
MARION         PTCLDY    75  50  41 W3        29.93R
MT. VERNON     CLEAR     72  50  46 W5        29.93S
CENTRALIA*     CLEAR     70  55  60 NW7       29.93R
SALEM*         CLEAR     69  52  53 NW8       29.93R
METROPOLIS*    CLEAR     74  55  51 CALM      29.94R
$$

ILZ067-068-072-073-078-083-087-091-290100-
SOUTHEAST ILLINOIS

CITY           SKY/WX    TMP DP  RH WIND       PRES   REMARKS
LAWRENCEVILLE  CLEAR     70  52  52 NW17      29.91R
FLORA*         CLEAR     69  51  52 NW7       29.93R
FAIRFIELD*     CLEAR     70  51  49 CALM      29.91R
HARRISBURG*    CLEAR     74  51  45 W7        29.92R
ROBINSON*      PTCLDY    67  52  58 W13       29.92R
CARMI*         CLEAR     71  54  55 NW10      29.91R
$$

ABBREVIATIONS USED IN REMARKS
   TC - TEMPERATURE IN CELSIUS
  WCI - WIND CHILL INDEX
   HX - HEAT INDEX
  VSB - VISIBILITY
$$




USA.gov is the U.S. government's official web portal to all federal, state and local government web resources and services.